Regional Weather Roundup
Issued by NWS

Home | Current Version | Previous Version | Text Only | Print | Product List | Glossary Off
Versions: 1 2 3 4 5 6 7 8 9 10 11 12 13 14 15 16 17 18 19 20 21 22 23 24 25 26 27 28 29 30 31 32 33 34 35 36 37 38 39 40 41 42 43 44 45 46 47 48 49 50

000
ASUS45 KSLC 091410
RWRUT

UTAH REGIONAL WEATHER ROUNDUP
NATIONAL WEATHER SERVICE SALT LAKE CITY UT
700 AM MST TUE FEB 09 2016

UTZ001>011-023>025-091500-

NORTHERN UTAH

CITY           SKY/WX    TMP DP  RH WIND       PRES   REMARKS
BRIGHAM CITY   PTCLDY    13  10  87 CALM      30.61F
HILL AFB       PTCLDY    23  14  68 E18       30.58F WCI   9
LOGAN          FOG       13  11  92 SW5       30.63F VSB<1/4 WCI   5
OGDEN          PTCLDY    23  18  81 S6        30.59S WCI  16
PROVO AIRPORT    N/A    N/A N/A N/A CALM      30.61S VSB<1/4
SALT LAKE CITY PTCLDY    26  22  84 CALM      30.60S FOG
VERNAL         CLOUDY     5   2  87 W5        30.56S WCI  -4
WENDOVER       PTCLDY    25  21  86 NE3       30.60S
HEBER CITY     CLEAR      3   0  85 CALM      30.59S

$$

UTZ012>022-026-027-091500-

SOUTHERN/CENTRAL UTAH

CITY           SKY/WX    TMP DP  RH WIND       PRES   REMARKS
BLANDING       PTCLDY    29  17  61 NE3       30.51S
BRYCE CANYON   PTCLDY     9   6  88 W8        30.54S WCI  -3
CEDAR CITY     PTCLDY    16  12  84 SE6       30.53S WCI   7
DELTA          CLOUDY     5   2  89 CALM      30.60F VSB<1/4
HANKSVILLE     MOCLDY    18  16  93 CALM      30.56S
MILFORD        FOG        3   0  87 CALM      30.57S VSB 1/4
MOAB/CYNLANDS  MOCLDY    12   9  87 CALM      30.53R
PRICE          PTCLDY    17  11  77 NE3       30.48F
ST GEORGE      SUNNY     34  23  64 SE3       30.48R

$$

REGIONAL REPORTS     COLORADO/ARIZONA

CITY           SKY/WX    TMP DP  RH WIND       PRES   REMARKS
CRAIG, CO      CLOUDY    -7 -11  83 CALM      30.54S
GRAND JUNCTION CLOUDY    15  13  91 E6        30.53S WCI   6
RIFLE          CLOUDY     9   5  84 SE5       30.56R WCI   1
MONTROSE       CLOUDY    15   9  76 S7        30.56R WCI   5
CORTEZ         CLOUDY    17  12  80 NE10      30.44S WCI   5
PAGE, AZ       CLEAR     30  24  78 CALM      30.49R HAZE
GRAND CANYON   PTCLDY    24  18  77 NE7       30.48R WCI  16
KINGMAN        CLEAR     42  24  49 E8        30.36R
FLAGSTAFF      CLEAR     32  15  49 E8        30.46R WCI  25

$$

REGIONAL REPORTS    NEVADA/IDAHO/WYOMING

CITY           SKY/WX    TMP DP  RH WIND       PRES   REMARKS
LAS VEGAS, NV  CLEAR     47  27  45 CALM      30.34S
ELY            MOCLDY     6   3  87 S13       30.56S WCI -10
ELKO           MOCLDY     7   4  87 E8        30.58F WCI  -6
POCATELLO, ID  FOG       18  17  96 NE5       30.60F VSB 3/4 WCI  11
BURLEY         CLOUDY    26  26 100 NE9       30.56S FOG     WCI  17
EVANSTON, WY   CLOUDY    23  17  78 SW12      30.54S WCI  12
ROCK SPRINGS   CLOUDY    26  20  77 SW16      30.47S WCI  14

$$



USA.gov is the U.S. government's official web portal to all federal, state and local government web resources and services.